Opa Locka, FL

2:56 AM EDT on October 20, 2019 (GMT -0400)
Opa Locka

Weather History for KOPF - September, 2019

Change the Weather History Date:

Saturday, September 21, 2019

  Actual Average Record
Temperature  
Mean Temperature 84 °F -  
Max Temperature 88 °F 89 °F 95 °F (1961)
Min Temperature 79 °F 75 °F 69 °F (1980)
Cooling Degree Days 18    
Growing Degree Days 34 (Base 50)    
Moisture  
Dew Point 73 °F    
Average Humidity 73    
Maximum Humidity 85    
Minimum Humidity 65    
Precipitation  
Precipitation 0.00 in - - ()
Sea Level Pressure  
Sea Level Pressure 30.05 in    
Wind  
Wind Speed 16 mph ()    
Max Wind Speed 24 mph    
Max Gust Speed 34 mph    
Visibility 10.0 miles    
Events Rain , Thunderstorm    
Averages and records for this station are not official NWS values.
T = Trace of Precipitation, MM = Missing Value Source: Averaged Metar Reports

Daily Weather History Graph

Daily Weather History Graph

Search for Another Location

Airport or City:

Astronomy

Sep. 21, 2019 Rise Set
Actual Time 7:09 AM EDT 7:18 PM EDT
Civil Twilight 6:46 AM EDT 7:41 PM EDT
Nautical Twilight 6:19 AM EDT 8:08 PM EDT
Astronomical Twilight 5:52 AM EDT 8:35 PM EDT
Moon No Moon Rise 1:37 PM EDT (9/21)
Length of Visible Light 12h 55m
Length of Day
12h 09m
Waning Gibbous, 55% of the Moon is Illuminated
Sep 21
Waning Gibbous
Sep 21
Last Quarter
Sep 28
New
Oct 5
First Quarter
Oct 13
Full

Hourly Weather History & Observations

Time (EDT) Temp. Heat Index Dew Point Humidity Pressure Visibility Wind Dir Wind Speed Gust Speed Precip Events Conditions
12:53 AM 81.0 °F 84.1 °F 69.1 °F 67% 30.05 in 10.0 mi ENE 16.1 mph 26.5 mph N/A   Mostly Cloudy
1:53 AM 80.1 °F 83.6 °F 71.1 °F 74% 30.05 in 10.0 mi ENE 15.0 mph - N/A   Mostly Cloudy
2:53 AM 80.1 °F 83.6 °F 71.1 °F 74% 30.03 in 10.0 mi ENE 17.3 mph 23.0 mph N/A   Overcast
3:04 AM 81.0 °F 84.9 °F 71.1 °F 72% 30.03 in 10.0 mi ENE 13.8 mph - N/A   Overcast
3:53 AM 80.1 °F 83.8 °F 72.0 °F 76% 30.03 in 10.0 mi ENE 13.8 mph - 0.00 in   Mostly Cloudy
4:53 AM 80.1 °F 83.8 °F 72.0 °F 76% 30.02 in 10.0 mi ENE 13.8 mph - N/A   Scattered Clouds
5:53 AM 80.1 °F 83.8 °F 72.0 °F 76% 30.03 in 10.0 mi ENE 15.0 mph - N/A   Mostly Cloudy
6:53 AM 80.1 °F 84.2 °F 73.0 °F 79% 30.04 in 10.0 mi ENE 16.1 mph - N/A   Mostly Cloudy
7:53 AM 81.0 °F 85.8 °F 73.0 °F 77% 30.05 in 10.0 mi ENE 18.4 mph 24.2 mph 0.00 in Rain Light Rain
8:53 AM 81.0 °F 86.2 °F 73.9 °F 79% 30.07 in 10.0 mi NE 18.4 mph 27.6 mph 0.00 in Rain Light Rain
9:18 AM 79.0 °F - 73.9 °F 84% 30.08 in 10.0 mi NE 15.0 mph 24.2 mph 0.00 in   Mostly Cloudy
9:53 AM 81.0 °F 87.3 °F 75.9 °F 85% 30.09 in 10.0 mi ENE 12.7 mph - N/A   Overcast
10:53 AM 84.9 °F 93.3 °F 75.0 °F 72% 30.09 in 10.0 mi ENE 19.6 mph 29.9 mph N/A   Scattered Clouds
11:53 AM 87.1 °F 96.3 °F 75.0 °F 67% 30.08 in 10.0 mi NE 20.7 mph 27.6 mph N/A   Scattered Clouds
12:23 PM 88.0 °F 97.5 °F 75.0 °F 65% 30.07 in 10.0 mi ENE 20.7 mph 29.9 mph N/A   Mostly Cloudy
12:38 PM 86.0 °F 93.8 °F 73.9 °F 67% 30.06 in 10.0 mi NE 21.9 mph 32.2 mph N/A   Mostly Cloudy
12:53 PM 86.0 °F 93.0 °F 73.0 °F 65% 30.07 in 10.0 mi NE 23.0 mph 34.5 mph N/A   Mostly Cloudy
1:53 PM 84.0 °F 90.2 °F 73.0 °F 69% 30.06 in 10.0 mi ENE 23.0 mph 32.2 mph 0.00 in Rain Light Rain
2:00 PM 84.0 °F 90.2 °F 73.0 °F 69% 30.05 in 10.0 mi NE 21.9 mph 31.1 mph 0.00 in   Mostly Cloudy
2:09 PM 84.0 °F 90.2 °F 73.0 °F 69% 30.04 in 10.0 mi ENE 21.9 mph 32.2 mph 0.00 in   Mostly Cloudy
2:53 PM 84.0 °F 90.2 °F 73.0 °F 69% 30.04 in 10.0 mi ENE 19.6 mph 32.2 mph 0.00 in Rain Light Rain
3:42 PM 84.9 °F 91.4 °F 73.0 °F 67% 30.03 in 10.0 mi NE 24.2 mph 31.1 mph 0.00 in   Mostly Cloudy
3:53 PM 84.0 °F 90.2 °F 73.0 °F 69% 30.03 in 10.0 mi ENE 24.2 mph 32.2 mph 0.00 in   Mostly Cloudy
4:13 PM 84.0 °F 90.2 °F 73.0 °F 69% 30.02 in 10.0 mi NE 24.2 mph 32.2 mph N/A   Scattered Clouds
4:53 PM 84.0 °F 89.6 °F 72.0 °F 67% 30.02 in 10.0 mi NE 21.9 mph 28.8 mph N/A   Overcast
5:15 PM 82.9 °F 88.8 °F 73.0 °F 72% 30.02 in 9.0 mi ENE 20.7 mph 28.8 mph 0.00 in Rain , Thunderstorm Light Rain
5:30 PM 82.0 °F 86.7 °F 72.0 °F 71% 30.02 in 10.0 mi NE 20.7 mph 31.1 mph 0.00 in   Overcast
5:53 PM 82.0 °F 86.7 °F 72.0 °F 71% 30.03 in 10.0 mi ENE 20.7 mph 29.9 mph 0.00 in   Overcast
6:53 PM 82.0 °F 86.7 °F 72.0 °F 71% 30.03 in 10.0 mi NE 19.6 mph 26.5 mph N/A   Overcast
7:11 PM 82.0 °F 86.7 °F 72.0 °F 71% 30.03 in 10.0 mi NE 18.4 mph 27.6 mph N/A   Overcast
7:53 PM 82.0 °F 86.7 °F 72.0 °F 71% 30.03 in 10.0 mi NE 18.4 mph 26.5 mph N/A   Overcast
8:53 PM 82.0 °F 86.7 °F 72.0 °F 71% 30.04 in 10.0 mi ENE 21.9 mph 28.8 mph N/A   Overcast
9:53 PM 80.1 °F 84.2 °F 73.0 °F 79% 30.06 in 10.0 mi NE 18.4 mph 27.6 mph 0.00 in Rain Light Rain
10:48 PM 80.6 °F 85.4 °F 73.4 °F 79% 30.06 in 10.0 mi ENE 23.0 mph 27.6 mph 0.00 in   Overcast
10:53 PM 81.0 °F 85.8 °F 73.0 °F 77% 30.06 in 10.0 mi ENE 19.6 mph 34.5 mph 0.00 in   Overcast
11:00 PM 81.0 °F 85.8 °F 73.0 °F 77% 30.06 in 10.0 mi ENE 16.1 mph 28.8 mph N/A   Overcast
11:53 PM 80.1 °F 84.2 °F 73.0 °F 79% 30.05 in 10.0 mi ENE 18.4 mph 24.2 mph 0.00 in Rain Light Rain